Content
SEND FEEDBACK

Daily
Averages
Monthly
Summary
United States of America

JACKSON, MISSISSIPPI


Home > North America > United States > Mississippi
Elevation: 301 feet     Latitude: 32 19N     Longitude: 090 05W

WEATHER
 
SELECT A DAY
Number of Records: 212,831;   Date Range: 1/1/95 - 9/18/14
 
SHARE

PRINT THIS DATA

[ ← Previous Day ]
WEATHER ALMANAC - JANUARY 31, 2013
[ Next Day → ]
[ °C ]   °F
Weather ElementAverageHighLow
Temperature45.3 °F57.9 °F (2:54 pm)30.9 °F (5:54 am)
Dewpoint27.2 °F30.9 °F (7:54 am)21.9 °F (1:54 pm)
Humidity53.5 %89 % (5:54 am)26 % (1:54 pm)
Barometer30.21 in30.28 in (10:54 pm)30.15 in (1:54 am)
Wind Speed5.4 mph10.4 mph (11:54 am)
Wind Gust16.1 mph (1:54 pm)
Weather ElementAverage
Visibility10 mi
Wind DirectionS (182.7 °)

Weather ElementTotal
Precipitation---
Heating Degree Days20.6 (Base 65)
Averaged from 22 records on January 31, 2013
WEATHER CONDITIONS BREAKOUT
WIND DIRECTION BREAKOUT
WEATHER BY HOUR - JANUARY 31, 2013
[ °C ]   °F
Local TimeTemperatureDewpointHumidityBarometerVisibilityWind DirectionWind SpeedGust SpeedPrecipitationEventsConditions
1:54 AM37.0 °F28.9 °F73 %30.15 in10.0 miWSW (240°)3.5 mphClear
2:54 AM36.0 °F28.9 °F76 %30.17 in10.0 miWSW (250°)3.5 mphClear
3:54 AM35.1 °F28.9 °F78 %30.16 in10.0 miCalmClear
4:54 AM34.0 °F28.0 °F79 %30.17 in10.0 miCalmClear
5:54 AM30.9 °F28.0 °F89 %30.17 in10.0 miCalmClear
6:54 AM34.0 °F28.0 °F79 %30.19 in10.0 miCalmClear
7:54 AM36.0 °F30.9 °F82 %30.22 in10.0 miCalmClear
9:54 AM50.0 °F30.0 °F46 %30.27 in10.0 miWest (270°)5.8 mphClear
10:54 AM52.0 °F27.0 °F38 %30.26 in10.0 miWest (270°)9.2 mphClear
11:54 AM55.0 °F25.0 °F31 %30.25 in10.0 miNW (310°)10.4 mphClear
12:54 PM55.9 °F25.0 °F30 %30.22 in10.0 miWSW (240°)8.1 mphClear
1:54 PM57.0 °F21.9 °F26 %30.21 in10.0 miWNW (290°)8.1 mph16.1 mphClear
2:54 PM57.9 °F23.0 °F26 %30.20 in10.0 miWSW (240°)9.2 mphClear
3:54 PM57.9 °F23.0 °F26 %30.18 in10.0 miSW (230°)8.1 mphClear
4:54 PM55.9 °F23.0 °F28 %30.19 in10.0 miSW (220°)9.2 mphClear
5:54 PM46.9 °F27.0 °F46 %30.20 in10.0 miSouth (190°)5.8 mphClear
6:54 PM44.1 °F28.9 °F55 %30.20 in10.0 miSouth (190°)4.6 mphClear
7:54 PM43.0 °F28.9 °F58 %30.22 in10.0 miSSW (210°)5.8 mphClear
8:54 PM44.1 °F27.0 °F51 %30.25 in10.0 miSSW (210°)5.8 mphClear
9:54 PM44.1 °F28.0 °F53 %30.27 in10.0 miSW (220°)6.9 mphClear
10:54 PM44.1 °F28.0 °F53 %30.28 in10.0 miSW (220°)5.8 mphClear
11:54 PM46.0 °F30.0 °F54 %30.27 in10.0 miSW (220°)8.1 mphClear
Hourly data recorded from KJAN, located miles away from Jackson, Mississippi







STORIES FROM OUR PARTNERS